Location: Unspecified
(0.0000°N, 0.0000°E)
Time: 01:23:41
(UTC+00:00)

Traac - Pass Details

Date: 23 December 2025
Orbit: 951 x 1102 km, 32.4° (Epoch: 19 January)

Event Time Altitude Azimuth Distance (km) Brightness Sun altitude
Exits shadow 02:28:23 19° 105° (ESE) 2,270 10.3 -46.8°
Drops below altitude 10° 02:30:13 10° 110° (ESE) 2,871 11.0 -46.5°
Sets 02:33:03 0° 115° (ESE) 3,848 11.8 -45.9°
